Allentown, PA

3:51 PM EDT on May 29, 2017 (GMT -0400)
Allentown

Weather History for KXLL - December, 2013

Change the Weather History Date:

Sunday, December 22, 2013

  Actual Average (KABE) Record (KABE)
Temperature  
Mean Temperature 52 °F -  
Max Temperature 64 °F 38 °F 65 °F (2013)
Min Temperature 39 °F 23 °F -2 °F (1944)
Degree Days  
Heating Degree Days 14    
Growing Degree Days 2 (Base 50)    
Moisture  
Dew Point 52 °F    
Average Humidity 77    
Maximum Humidity 87    
Minimum Humidity 68    
Precipitation  
Precipitation 0.00 in - - ()
Sea Level Pressure  
Sea Level Pressure 29.89 in    
Wind  
Wind Speed 7 mph (SSW)    
Max Wind Speed 15 mph    
Max Gust Speed 23 mph    
Visibility 10 miles    
Events Rain    
Averages and records for this station are not official NWS values.
T = Trace of Precipitation, MM = Missing Value Source: NWS Daily Summary

Daily Weather History Graph

Daily Weather History Graph

Search for Another Location

Airport or City:

Trip Planner

Search our weather history database for the weather conditions in past years. The results will help you decide how hot, cold, wet, or windy it might be!

Date:

Astronomy

Dec. 22, 2013 Rise Set
Actual Time 7:22 AM EST 4:38 PM EST
Civil Twilight 6:51 AM EST 5:09 PM EST
Nautical Twilight 6:17 AM EST 5:44 PM EST
Astronomical Twilight 5:44 AM EST 6:17 PM EST
Moon 9:50 PM EST (12/22) 10:16 AM EST (12/22)
Length of Visible Light 10h 18m
Length of Day
9h 16m
Waning Gibbous, 77% of the Moon is Illuminated
Dec 22
Waning Gibbous
Dec 25
Last Quarter
Jan 1
New
Jan 7
First Quarter
Jan 15
Full

Hourly Weather History & Observations

Time (EST) Temp. Windchill Dew Point Humidity Pressure Visibility Wind Dir Wind Speed Gust Speed Precip Events Conditions
12:15 AM 41.0 °F - 33.8 °F 76% 29.90 in 7.0 mi Calm Calm - N/A   Clear
12:35 AM 41.0 °F 39.0 °F 33.8 °F 76% 29.88 in 7.0 mi ENE 3.5 mph - N/A   Scattered Clouds
12:55 AM 41.0 °F - 33.8 °F 76% 29.88 in 7.0 mi Calm Calm - N/A   Scattered Clouds
1:15 AM 41.0 °F - 33.8 °F 76% 29.88 in 7.0 mi Calm Calm - N/A   Overcast
1:35 AM 41.0 °F - 33.8 °F 76% 29.89 in 7.0 mi Calm Calm - N/A   Scattered Clouds
1:55 AM 41.0 °F 39.0 °F 33.8 °F 76% 29.86 in 5.0 mi NNE 3.5 mph - N/A Rain Rain
2:15 AM 39.2 °F - 33.8 °F 81% 29.86 in 5.0 mi Calm Calm - N/A   Haze
2:35 AM 46.4 °F 40.7 °F 42.8 °F 87% 29.85 in 5.0 mi SSW 12.7 mph - N/A   Haze
2:55 AM 57.2 °F - 51.8 °F 82% 29.83 in 10.0 mi South 10.4 mph 17.3 mph N/A   Mostly Cloudy
3:15 AM 59.0 °F - 53.6 °F 82% 29.84 in 10.0 mi SSW 15.0 mph 18.4 mph N/A   Mostly Cloudy
3:35 AM 57.2 °F - 51.8 °F 82% 29.84 in 5.0 mi SSW 9.2 mph - N/A   Haze
3:55 AM 59.0 °F - 53.6 °F 82% 29.82 in 10.0 mi SSW 5.8 mph - N/A   Overcast
4:15 AM 59.0 °F - 53.6 °F 82% 29.82 in 10.0 mi SSW 10.4 mph - N/A   Overcast
4:35 AM 59.0 °F - 53.6 °F 82% 29.81 in 10.0 mi SSW 11.5 mph - N/A   Overcast
4:55 AM 60.8 °F - 53.6 °F 77% 29.79 in 10.0 mi South 15.0 mph - N/A Rain Light Rain
5:15 AM 60.8 °F - 55.4 °F 82% 29.79 in 10.0 mi South 12.7 mph 23.0 mph N/A   Mostly Cloudy
5:35 AM 60.8 °F - 53.6 °F 77% 29.80 in 10.0 mi SSW 11.5 mph 21.9 mph N/A   Overcast
5:55 AM 60.8 °F - 53.6 °F 77% 29.80 in 10.0 mi SSW 11.5 mph - N/A   Overcast
6:15 AM 60.8 °F - 55.4 °F 82% 29.81 in 10.0 mi SW 10.4 mph - N/A   Overcast
6:35 AM 60.8 °F - 55.4 °F 82% 29.82 in 10.0 mi SSW 11.5 mph - N/A   Overcast
6:55 AM 60.8 °F - 55.4 °F 82% 29.82 in 10.0 mi SSW 15.0 mph - N/A   Overcast
7:15 AM 62.6 °F - 55.4 °F 77% 29.83 in 10.0 mi SSW 12.7 mph 19.6 mph N/A   Overcast
7:35 AM 64.4 °F - 55.4 °F 73% 29.84 in 10.0 mi SW 12.7 mph 21.9 mph N/A   Overcast
7:55 AM 64.4 °F - 55.4 °F 73% 29.87 in 7.0 mi West 10.4 mph 18.4 mph N/A Rain Light Rain
8:15 AM 60.8 °F - 55.4 °F 82% 29.87 in 10.0 mi SW 8.1 mph - N/A   Overcast
8:35 AM 60.8 °F - 55.4 °F 82% 29.88 in 10.0 mi SSW 8.1 mph - N/A   Overcast
8:55 AM 62.6 °F - 55.4 °F 77% 29.89 in 10.0 mi SSW 10.4 mph - N/A   Overcast
9:15 AM 62.6 °F - 55.4 °F 77% 29.91 in 10.0 mi SSW 9.2 mph - N/A   Overcast
9:35 AM 62.6 °F - 55.4 °F 77% 29.92 in 10.0 mi SSW 8.1 mph - N/A   Overcast
9:55 AM 60.8 °F - 55.4 °F 82% 29.94 in 10.0 mi SW 8.1 mph - N/A   Overcast
10:15 AM 62.6 °F - 55.4 °F 77% 29.95 in 10.0 mi SSW 8.1 mph - N/A Rain Light Rain
10:35 AM 62.6 °F - 55.4 °F 77% 29.96 in 10.0 mi SW 6.9 mph - N/A   Overcast
10:55 AM 60.8 °F - 55.4 °F 82% 29.96 in 10.0 mi WSW 4.6 mph - N/A Rain Light Rain
11:15 AM 60.8 °F - 55.4 °F 82% 29.95 in 10.0 mi SSW 9.2 mph - N/A Rain Light Rain
11:35 AM 62.6 °F - 55.4 °F 77% 29.94 in 10.0 mi SSW 10.4 mph - N/A   Overcast
11:55 AM 64.4 °F - 55.4 °F 73% 29.92 in 10.0 mi South 10.4 mph - N/A   Mostly Cloudy
12:15 PM 64.4 °F - 55.4 °F 73% 29.90 in 10.0 mi South 8.1 mph - N/A   Mostly Cloudy
12:35 PM 64.4 °F - 55.4 °F 73% 29.88 in 10.0 mi South 10.4 mph - N/A   Mostly Cloudy
12:55 PM 64.4 °F - 53.6 °F 68% 29.86 in 10.0 mi South 8.1 mph - N/A   Mostly Cloudy
1:15 PM 64.4 °F - 53.6 °F 68% 29.84 in 10.0 mi South 12.7 mph 19.6 mph N/A   Overcast
1:35 PM 64.4 °F - 55.4 °F 73% 29.85 in 10.0 mi South 10.4 mph 16.1 mph N/A   Overcast
1:55 PM 64.4 °F - 55.4 °F 73% 29.85 in 10.0 mi South 13.8 mph 21.9 mph N/A Rain Light Rain
2:15 PM 64.4 °F - 55.4 °F 73% 29.84 in 10.0 mi South 15.0 mph 18.4 mph N/A Rain Light Rain
2:35 PM 64.4 °F - 55.4 °F 73% 29.85 in 10.0 mi South 13.8 mph 20.7 mph N/A Rain Light Rain
2:55 PM 64.4 °F - 53.6 °F 68% 29.85 in 10.0 mi South 15.0 mph 19.6 mph N/A Rain Light Rain
3:15 PM 62.6 °F - 53.6 °F 72% 29.86 in 10.0 mi SW 10.4 mph 16.1 mph N/A Rain Light Rain
3:35 PM 62.6 °F - 53.6 °F 72% 29.89 in 10.0 mi SSW 15.0 mph - N/A   Mostly Cloudy
3:55 PM 62.6 °F - 53.6 °F 72% 29.88 in 10.0 mi South 15.0 mph 19.6 mph N/A Rain Light Rain
4:15 PM 62.6 °F - 53.6 °F 72% 29.85 in 10.0 mi South 13.8 mph 19.6 mph N/A Rain Light Rain
4:35 PM 62.6 °F - 53.6 °F 72% 29.91 in 10.0 mi WSW 10.4 mph 20.7 mph N/A Rain Light Rain
4:55 PM 62.6 °F - 53.6 °F 72% 29.93 in 10.0 mi SW 10.4 mph 19.6 mph N/A   Scattered Clouds
5:15 PM 60.8 °F - 53.6 °F 77% 29.91 in 10.0 mi SSW 9.2 mph - N/A   Light Drizzle
5:35 PM 60.8 °F - 53.6 °F 77% 29.92 in 10.0 mi SW 8.1 mph - N/A   Clear
5:55 PM 60.8 °F - 51.8 °F 72% 29.92 in 10.0 mi SW 5.8 mph - N/A   Clear
6:15 PM 59.0 °F - 51.8 °F 77% 29.91 in 10.0 mi SSW 4.6 mph - N/A   Clear
6:35 PM 59.0 °F - 51.8 °F 77% 29.93 in 10.0 mi Calm Calm - N/A   Clear
6:55 PM 59.0 °F - 51.8 °F 77% 29.94 in 10.0 mi Calm Calm - N/A   Clear
7:15 PM 59.0 °F - 51.8 °F 77% 29.94 in 10.0 mi SW 4.6 mph - N/A   Clear
7:35 PM 59.0 °F - 51.8 °F 77% 29.94 in 10.0 mi South 6.9 mph - N/A   Clear
7:55 PM 59.0 °F - 51.8 °F 77% 29.94 in 10.0 mi Calm Calm - N/A   Clear
8:15 PM 59.0 °F - 51.8 °F 77% 29.96 in 10.0 mi SSW 8.1 mph - N/A   Scattered Clouds
8:35 PM 59.0 °F - 51.8 °F 77% 29.96 in 10.0 mi SSW 5.8 mph - N/A   Scattered Clouds
8:55 PM 59.0 °F - 51.8 °F 77% 29.95 in 10.0 mi South 6.9 mph - N/A   Clear
9:15 PM 59.0 °F - 51.8 °F 77% 29.95 in 10.0 mi South 8.1 mph - N/A   Clear
9:35 PM 59.0 °F - 51.8 °F 77% 29.97 in 10.0 mi SSW 5.8 mph - N/A   Clear
9:55 PM 59.0 °F - 51.8 °F 77% 29.96 in 10.0 mi South 6.9 mph - N/A   Clear
10:15 PM 59.0 °F - 51.8 °F 77% 29.95 in 10.0 mi South 4.6 mph - N/A   Clear
10:35 PM 57.2 °F - 51.8 °F 82% 29.96 in 10.0 mi SW 4.6 mph - N/A   Clear
10:55 PM 57.2 °F - 51.8 °F 82% 29.96 in 10.0 mi SW 4.6 mph - N/A   Clear
11:15 PM 57.2 °F - 51.8 °F 82% 29.96 in 10.0 mi South 4.6 mph - N/A   Scattered Clouds
11:35 PM 57.2 °F - 51.8 °F 82% 29.96 in 10.0 mi SSW 4.6 mph - N/A   Clear
11:55 PM 57.2 °F - 51.8 °F 82% 29.95 in 10.0 mi SW 4.6 mph - N/A   Clear